FW2487 Weather Reports


Display with metric or nautical units.
time (UTC)temp
F
wind
direction
speed
MPH
gust
MPH
rain 1hr
in
rain 24hr
in
rain mn
in
humidity
%
barometer
mb
20260509160035 58 355 0.0 4.0 0.00 0.00 0.00 58 1021.5
20260509154535 57 66 0.0 3.0 0.00 0.00 0.00 59 1021.7
20260509153036 54 270 0.0 2.0 0.00 0.00 0.00 62 1021.7
20260509151533 53 223 0.0 2.0 0.00 0.00 0.00 68 1021.7
20260509144533 48 120 0.0 1.0 0.00 0.00 0.00 80 1021.7
20260509141537 41 202 0.0 0.0 0.00 0.00 0.00 89 1021.7
20260509134534 37 194 0.0 2.0 0.00 0.00 0.00 90 1021.4
20260509131535 37 123 2.0 5.0 0.00 0.00 0.00 90 1021.2
20260509123031 38 194 1.0 6.0 0.00 0.00 0.00 90 1020.9
20260509121535 37 161 3.0 5.0 0.00 0.00 0.00 89 1020.9
20260509120031 37 146 2.0 4.0 0.00 0.00 0.00 89 1020.9
20260509114606 38 150 2.0 4.0 0.00 0.00 0.00 89 1020.7
20260509113032 39 166 2.0 4.0 0.00 0.00 0.00 88 1020.8
20260509111533 39 177 0.0 2.0 0.00 0.00 0.00 88 1020.9
20260509110035 40 172 2.0 4.0 0.00 0.00 0.00 87 1020.9
20260509104643 41 160 2.0 6.0 0.00 0.00 0.00 86 1020.9
20260509101535 44 207 2.0 7.0 0.00 0.00 0.00 82 1021.2
20260509094534 42 168 2.0 6.0 0.00 0.00 0.00 85 1021.2
20260509093109 43 162 2.0 5.0 0.00 0.00 0.00 84 1021.4
20260509091642 43 62 2.0 5.0 0.00 0.00 0.00 83 1021.5
20260509090036 45 20 1.0 5.0 0.00 0.00 0.00 81 1021.6
20260509084609 46 136 2.0 6.0 0.00 0.00 0.00 80 1021.8
20260509083038 46 178 3.0 6.0 0.00 0.00 0.00 80 1022.0
20260509081536 47 163 1.0 4.0 0.00 0.00 0.00 78 1022.2
20260509080035 47 169 4.0 6.0 0.00 0.00 0.00 78 1022.3
20260509074533 47 164 3.0 9.0 0.00 0.00 0.00 78 1022.4
20260509073036 48 129 2.0 6.0 0.00 0.00 0.00 78 1022.5
20260509071536 48 183 5.0 7.0 0.00 0.00 0.00 78 1022.5
20260509070036 49 206 3.0 5.0 0.00 0.00 0.00 75 1022.6
20260509064533 54 201 2.0 4.0 0.00 0.00 0.00 66 1022.7
20260509061534 55 265 2.0 5.0 0.00 0.00 0.00 65 1022.7
20260509060036 54 181 1.0 5.0 0.00 0.00 0.00 67 1022.8
20260509054535 53 93 2.0 6.0 0.00 0.00 0.00 67 1022.6
20260509051534 53 212 0.0 4.0 0.00 0.00 0.00 67 1022.5
20260509050111 53 235 0.0 6.0 0.00 0.00 0.00 66 1022.4
20260509044534 54 231 2.0 7.0 0.00 0.00 0.00 65 1022.4
20260509041531 54 227 3.0 9.0 0.00 0.00 0.00 63 1022.1
20260509040032 55 232 3.0 9.0 0.00 0.00 0.00 62 1021.9
20260509034607 56 240 3.0 9.0 0.00 0.00 0.00 61 1021.7
20260509031535 57 246 4.0 11.0 0.00 0.00 0.00 58 1021.3
20260509030033 58 251 3.0 9.0 0.00 0.00 0.00 57 1021.2
20260509024530 59 258 7.0 15.0 0.00 0.00 0.00 55 1021.1
20260509023110 60 268 7.0 13.0 0.00 0.00 0.00 53 1021.0
20260509021533 61 265 7.0 12.0 0.00 0.00 0.00 51 1020.9
20260509020034 62 260 9.0 16.0 0.00 0.00 0.00 49 1020.8
20260509014534 63 254 8.0 17.0 0.00 0.00 0.00 46 1020.7
20260509011536 64 260 10.0 20.0 0.00 0.00 0.00 44 1020.7
20260509010034 64 258 10.0 18.0 0.00 0.00 0.00 43 1020.6
20260509004641 65 275 10.0 22.0 0.00 0.00 0.00 42 1020.5
20260509003142 65 274 8.0 16.0 0.00 0.00 0.00 40 1020.3
20260509001537 67 267 9.0 18.0 0.00 0.00 0.00 37 1019.9
20260508234532 67 256 6.0 16.0 0.00 0.00 0.00 37 1019.9
20260508231536 66 269 8.0 22.0 0.00 0.00 0.00 36 1019.8
20260508230036 66 278 11.0 20.0 0.00 0.00 0.00 36 1019.6
20260508224533 67 267 9.0 19.0 0.00 0.00 0.00 34 1019.6
20260508223110 68 275 9.0 18.0 0.00 0.00 0.00 33 1019.5
20260508221537 67 260 11.0 23.0 0.00 0.00 0.00 31 1019.5
20260508220033 67 270 9.0 21.0 0.00 0.00 0.00 31 1019.5
20260508214607 67 245 9.0 21.0 0.00 0.00 0.00 29 1019.6
20260508211534 67 247 8.0 17.0 0.00 0.00 0.00 30 1019.6
20260508210142 66 261 11.0 22.0 0.00 0.00 0.00 32 1019.5
20260508203037 66 260 8.0 20.0 0.00 0.00 0.00 33 1019.6
20260508201536 65 270 6.0 16.0 0.00 0.00 0.00 35 1019.5
20260508200034 65 275 7.0 22.0 0.00 0.00 0.00 35 1019.4
20260508194534 64 276 9.0 19.0 0.00 0.00 0.00 38 1019.4
20260508193037 63 276 10.0 20.0 0.00 0.00 0.00 39 1019.3
20260508191534 63 282 12.0 21.0 0.00 0.00 0.00 39 1019.3
20260508183035 61 287 9.0 22.0 0.00 0.00 0.00 42 1019.2
20260508181607 57 28 2.0 6.0 0.00 0.00 0.00 59 1019.1
20260508180035 55 195 0.0 3.0 0.00 0.00 0.00 63 1019.1
20260508174535 55 245 2.0 5.0 0.00 0.00 0.00 65 1019.2
20260508170035 54 339 3.0 8.0 0.00 0.00 0.00 64 1018.6
20260508163107 54 14 9.0 16.0 0.00 0.00 0.00 63 1018.6